Cedar Island, NC

4:38 AM EDT on October 01, 2016 (GMT -0400)
Piney Island

Weather History for KNBT - October, 2013

Change the Weather History Date:

Friday, October 4, 2013

  Actual Average (KMRH) Record (KMRH)
Temperature  
Mean Temperature 75 °F -  
Max Temperature 84 °F 79 °F 89 °F (1986)
Min Temperature 68 °F 58 °F 39 °F (1974)
Cooling Degree Days 10    
Growing Degree Days 25 (Base 50)    
Moisture  
Dew Point 67 °F    
Average Humidity 82    
Maximum Humidity 100    
Minimum Humidity 54    
Precipitation  
Precipitation 0.00 in - - ()
Sea Level Pressure  
Sea Level Pressure 30.12 in    
Wind  
Wind Speed 4 mph (South)    
Max Wind Speed 12 mph    
Max Gust Speed -    
Visibility 7 miles    
Events Fog    
Averages and records for this station are not official NWS values.
T = Trace of Precipitation, MM = Missing Value Source: NWS Daily Summary

Daily Weather History Graph

Daily Weather History Graph

Search for Another Location

Airport or City:

Trip Planner

Search our weather history database for the weather conditions in past years. The results will help you decide how hot, cold, wet, or windy it might be!

Date:

Astronomy

Oct. 04, 2013 Rise Set
Actual Time 7:03 AM EDT 6:45 PM EDT
Civil Twilight 6:37 AM EDT 7:10 PM EDT
Nautical Twilight 6:08 AM EDT 7:39 PM EDT
Astronomical Twilight 5:39 AM EDT 8:09 PM EDT
Moon 6:36 AM EDT (10/4) 6:27 PM EDT (10/4)
Length of Visible Light 12h 32m
Length of Day
11h 42m
Waning Crescent, 0% of the Moon is Illuminated
Oct 4
Waning Crescent
Oct 4
New
Oct 11
First Quarter
Oct 18
Full
Oct 26
Last Quarter

Hourly Weather History & Observations

Time (EDT) Temp. Heat Index Dew Point Humidity Pressure Visibility Wind Dir Wind Speed Gust Speed Precip Events Conditions
12:56 AM 68.0 °F - 66.0 °F 93% 30.14 in 7.0 mi South 4.6 mph - N/A   Clear
1:56 AM 68.0 °F - 66.9 °F 96% 30.14 in 3.0 mi SW 3.5 mph - N/A   Clear
2:56 AM 69.1 °F - 68.0 °F 96% 30.12 in 4.0 mi SW 3.5 mph - N/A   Clear
3:05 AM 69.1 °F - 68.0 °F 96% 30.11 in 2.5 mi SW 3.5 mph - N/A   Clear
3:12 AM 69.1 °F - 68.0 °F 96% 30.11 in 4.0 mi SW 4.6 mph - N/A   Clear
3:56 AM 69.1 °F - 68.0 °F 96% 30.12 in 6.0 mi SSW 4.6 mph - N/A   Clear
4:53 AM 68.0 °F - 66.2 °F 94% 30.11 in 0.5 mi SSW 4.6 mph - N/A Fog Fog
4:56 AM 68.0 °F - 66.9 °F 96% 30.13 in 0.5 mi SSW 4.6 mph - N/A Fog Fog
5:56 AM 69.1 °F - 68.0 °F 96% 30.13 in 1.2 mi Calm Calm - N/A   Clear
5:59 AM 68.0 °F - 68.0 °F 100% 30.12 in 3.0 mi Calm Calm - N/A   Clear
6:56 AM 69.1 °F - 68.0 °F 96% 30.14 in 4.0 mi Calm Calm - N/A   Clear
7:03 AM 69.1 °F - 68.0 °F 96% 30.12 in 1.2 mi Calm Calm - N/A   Clear
7:10 AM 69.1 °F - 68.0 °F 96% 30.12 in 0.2 mi SSE 3.5 mph - N/A Fog Fog
7:56 AM 70.0 °F - 69.1 °F 97% 30.15 in 3.0 mi Calm Calm - N/A   Clear
8:56 AM 75.0 °F - 70.0 °F 84% 30.16 in 10.0 mi Calm Calm - N/A   Clear
9:56 AM 79.0 °F - 66.0 °F 64% 30.17 in 10.0 mi Calm Calm - N/A   Clear
10:56 AM 81.0 °F 83.0 °F 66.0 °F 60% 30.16 in 10.0 mi Variable 3.5 mph - N/A   Clear
11:56 AM 82.9 °F 84.6 °F 64.9 °F 54% 30.15 in 10.0 mi NW 5.8 mph - N/A   Clear
12:56 PM 81.0 °F 83.3 °F 66.9 °F 62% 30.14 in 10.0 mi Variable 6.9 mph - N/A   Clear
1:56 PM 81.0 °F 83.0 °F 66.0 °F 60% 30.12 in 10.0 mi East 9.2 mph - N/A   Clear
2:56 PM 82.0 °F 84.5 °F 66.9 °F 60% 30.10 in 10.0 mi East 6.9 mph - N/A   Clear
3:56 PM 82.9 °F 85.0 °F 66.0 °F 56% 30.10 in 10.0 mi SSE 6.9 mph - N/A   Clear
4:56 PM 82.0 °F 83.4 °F 64.0 °F 54% 30.09 in 10.0 mi SSE 11.5 mph - N/A   Clear
5:56 PM 80.1 °F 81.7 °F 64.0 °F 58% 30.09 in 10.0 mi SSE 8.1 mph - N/A   Clear
6:56 PM 75.0 °F - 64.0 °F 69% 30.10 in 10.0 mi SSE 5.8 mph - N/A   Clear
7:56 PM 73.0 °F - 64.9 °F 76% 30.10 in 10.0 mi South 3.5 mph - N/A   Clear
8:56 PM 71.1 °F - 66.0 °F 84% 30.11 in 10.0 mi South 4.6 mph - N/A   Clear
9:56 PM 70.0 °F - 66.0 °F 87% 30.12 in 10.0 mi South 3.5 mph - N/A   Clear
10:56 PM 70.0 °F - 66.0 °F 87% 30.13 in 9.0 mi SSW 3.5 mph - N/A   Clear
11:56 PM 69.1 °F - 66.0 °F 90% 30.13 in 9.0 mi SW 4.6 mph - N/A   Clear